Regional Weather Roundup
Issued by NWS Green Bay, WI

Home | Current Version | Previous Version | Text Only | Print | Product List | Glossary On
Versions: 1 2 3 4 5 6 7 8 9 10 11 12 13 14 15 16 17 18 19 20 21 22 23 24 25 26 27 28 29 30 31 32 33 34 35 36 37 38 39 40 41 42 43 44 45 46 47 48 49 50
000
ASUS43 KGRB 030400
RWRGRB

NORTH-CENTRAL AND NORTHEAST WISCONSIN REGIONAL WEATHER ROUNDUP
NATIONAL WEATHER SERVICE GREEN BAY WI
1100 PM CDT TUE JUN 02 2015

WIZ005-009-010>012-018-019-030500-
NORTH CENTRAL WISCONSIN

CITY           SKY/WX    TMP DP  RH WIND       PRES   REMARKS
IRONWOOD       MOCLDY    64  39  39 S9        29.94F
MANITOWISH WTR NOT AVBL
ARBOR VITAE    NOT AVBL
EAGLE RIVER    NOT AVBL
LAND O LAKES   NOT AVBL
RHINELANDER    CLEAR     57  42  57 S5        30.04S
PHILLIPS       NOT AVBL
ANTIGO         NOT AVBL
TOMAHAWK       NOT AVBL
MERRILL        NOT AVBL
$$

WIZ013-073-030500-
NORTHEAST WISCONSIN

CITY           SKY/WX    TMP DP  RH WIND       PRES   REMARKS
IRON MOUNTAIN  CLEAR     55  38  52 SE6       30.04S
MARINETTE      CLEAR     54  36  50 S7        30.06S
$$

WIZ017-030-035>037-045-030500-
CENTRAL WISCONSIN

CITY           SKY/WX    TMP DP  RH WIND       PRES   REMARKS
MEDFORD        NOT AVBL
WAUSAU         PTCLDY    58  42  55 SE9       30.02F
MOSINEE        NOT AVBL
MARSHFIELD     CLEAR     57  44  62 SE5       30.02F
WISC RAPIDS    CLEAR     57  44  62 S5        30.04F
STEVENS POINT  NOT AVBL
WAUPACA        NOT AVBL
SHAWANO        NOT AVBL
CLINTONVILLE   NOT AVBL
$$

WIZ038-039-048-051-030500-
FOX VALLEY

CITY           SKY/WX    TMP DP  RH WIND       PRES   REMARKS
NWS GREEN BAY  CLEAR     53  40  61 S5        30.07S
APPLETON       PTCLDY    57  37  47 SE7       30.07S
OSHKOSH        PTCLDY    51  41  68 S7        30.06S
FOND DU LAC    CLEAR     55  39  54 CALM      30.07S
$$

WIZ022-050-052-030500-
EAST CENTRAL WISCONSIN

CITY           SKY/WX    TMP DP  RH WIND       PRES   REMARKS
STURGEON BAY   CLEAR     45  37  76 SE7       30.10F
MANITOWOC      NOT AVBL
SHEBOYGAN      CLEAR     49  44  83 S5        30.09S
$$

LMZ563-521-522-541>543-030500-
LAKESHORE

STATION/POSITION TIME  TEMP    WIND        PRES    VSBY  WAVE
                       AIR SEA DIR/SP/G                  HT/PER
                 (UTC) (F)     (DEG/KT/KT) (MB)    (MI)  (FT/S)
SHEBOYGAN LKSHOR 0300   49     170/  4/  5 1019.5R
KEWAUNEE LKSHORE 0300   47     150/  6/  9 1018.3R
ALGOMA MARINA    0309          160/  6/  9   N/A
NORTHPORT PIER   0300   49     160/  6/  8 1019.0S
N MID LAKE BUOY  0250   40 37  160/  8/  8 1019.8F         0
SISTER BAY LKSHO 0348   48     160/  9/ 11   N/A
CHAMBERS ISLAND  0300   57     140/  5/  9 1018.6S
MENOMINEE LKSHOR 0300   60     170/  6/ 11 1018.8R
$$



USA.gov is the U.S. government's official web portal to all federal, state and local government web resources and services.